Weather History for Agadir Al Massira, Morocco

Change the Weather History Date:

Saturday, October 1, 2011

  Actual Average Record
Temperature  
Mean Temperature 71 °F -  
Max Temperature 80 °F - - ()
Min Temperature 62 °F - - ()
Cooling Degree Days 6    
Growing Degree Days 21 (Base 50)    
Moisture  
Dew Point 62 °F    
Average Humidity 74    
Maximum Humidity 88    
Minimum Humidity 49    
Precipitation  
Precipitation 0.00 in - - ()
Sea Level Pressure  
Sea Level Pressure 29.96 in    
Wind  
Wind Speed 4 mph ()    
Max Wind Speed 10 mph    
Max Gust Speed -    
Visibility 4.6 miles    
Events      
T = Trace of Precipitation, MM = Missing Value Source: Averaged Metar Reports

Daily Weather History Graph

Daily Weather History Graph

Search for Another Location

Airport:

Trip Planner

Search our weather history database for the weather conditions in past years. The results will help you decide how hot, cold, wet, or windy it might be!

Date:

Astronomy

Oct. 01, 2011 Rise Set
Actual Time 6:30 AM WET 6:23 PM WET
Civil Twilight 6:06 AM WET 6:47 PM WET
Nautical Twilight 5:38 AM WET 7:15 PM WET
Astronomical Twilight 5:11 AM WET 7:43 PM WET
Moon 10:58 AM WET (10/1) 9:31 PM WET (10/1)
Length of Visible Light 12h 40m
Length of Day
11h 52m
Waxing Crescent, 22% of the Moon is Illuminated
Oct 1
Waxing Crescent
Oct 4
First Quarter
Oct 12
Full
Oct 20
Last Quarter
Oct 26
New

Hourly Weather History & Observations

Time (WET) Temp. Dew Point Humidity Pressure Visibility Wind Dir Wind Speed Gust Speed Precip Events Conditions
12:00 AM 68.0 °F 62.6 °F 83% 30.01 in 5.0 mi SSE 4.6 mph - N/A   Mostly Cloudy
2:00 AM 68.0 °F 62.6 °F 83% 29.98 in 5.0 mi SE 3.5 mph - N/A   Mostly Cloudy
5:00 AM 66.2 °F 62.6 °F 88% 29.92 in 3.1 mi NE 3.5 mph - N/A   Mostly Cloudy
6:00 AM 65 °F 62 °F 88% 29.92 in 3 mi ENE 3.5 mph - -   Mostly Cloudy
7:00 AM 66.2 °F 62.6 °F 88% 29.92 in 3.1 mi WSW 1.2 mph - N/A   Mostly Cloudy
8:00 AM 66.2 °F 62.6 °F 88% 29.95 in 3.1 mi WSW 5.8 mph - N/A   Mostly Cloudy
9:00 AM 70 °F 62 °F 70% 29.98 in 5 mi West 5.8 mph - -   Mostly Cloudy
10:00 AM 69.8 °F 62.6 °F 78% 29.98 in 3.1 mi WSW 5.8 mph - N/A   Mostly Cloudy
11:00 AM 71.6 °F 62.6 °F 73% 29.98 in 5.0 mi WSW 4.6 mph - N/A   Mostly Cloudy
12:00 PM 75 °F 63 °F 57% 29.98 in 5 mi SW 8.1 mph - -   Partly Cloudy
12:00 PM 75.2 °F 62.6 °F 65% 29.98 in 5.0 mi SW 8.1 mph - N/A   Scattered Clouds
1:00 PM 75.2 °F 62.6 °F 65% 29.98 in 5.0 mi WSW 8.1 mph - N/A   Mostly Cloudy
2:00 PM 77.0 °F 64.4 °F 65% 29.95 in 5.0 mi Variable 4.6 mph - N/A   Unknown
3:00 PM 79 °F 63 °F 49% 29.92 in 5 mi WSW 5.8 mph - -   Mostly Cloudy
3:00 PM 78.8 °F 62.6 °F 57% 29.92 in 5.0 mi WSW 5.8 mph - N/A   Unknown
4:00 PM 78.8 °F 62.6 °F 57% 29.92 in 5.0 mi WSW 5.8 mph - N/A   Unknown
5:00 PM 75.2 °F 62.6 °F 65% 29.92 in 5.0 mi West 10.4 mph - N/A   Unknown
6:00 PM 71 °F 62 °F 67% 29.94 in 5 mi West 8.1 mph - -   Partly Cloudy
7:00 PM 68.0 °F 62.6 °F 83% 29.95 in 5.0 mi West 6.9 mph - N/A   Unknown
8:00 PM 68.0 °F 62.6 °F 83% 29.98 in 5.0 mi SW 4.6 mph - N/A   Unknown
9:00 PM 67 °F 62 °F 79% 29.99 in 5 mi SSW 3.5 mph - -   Partly Cloudy
9:00 PM 68.0 °F 62.6 °F 83% 29.98 in 5.0 mi SSW 3.5 mph - N/A   Unknown
10:00 PM 66.2 °F 62.6 °F 88% 29.98 in 5.0 mi South 3.5 mph - N/A   Unknown
11:00 PM 64.4 °F 59.0 °F 83% 29.98 in - ESE 2.3 mph - N/A   Clear